[TLELIST] Archives

 

[TLELIST] Current TLEs

May 1st 2024 PST

HST 1 20580U 90037B 24122.16038722 .00006986 00000-0 33391-3 0 9995 2 20580 28.4685 300.0533 0001957 245.4969 114.5419 15.17056512670141 ISS (ZARYA) 1 25544U 98067A 24122.43841905 .00013534 00000-0 23796-3 0 9991 2 25544 51.6389 187.1965 0003719 130.1892 342.4288 15.50794930451290 CXO 1 25867U 99040B 24122.90844459 .00000974 00000-0 00000-0 0 9994 2 25867 40.1204 158.4290 8930870 293.0739 0.0973 0.37809658 14390 ...Continue Reading

[TLELIST] Current TLEs

April 30th 2024 PST

HST 1 20580U 90037B 24120.91044929 .00006015 00000-0 28636-3 0 9991 2 20580 28.4688 308.4188 0001987 227.6249 132.4175 15.17039859669958 ISS (ZARYA) 1 25544U 98067A 24121.34418611 .00020521 00000-0 35672-3 0 9994 2 25544 51.6389 192.6226 0003613 123.7838 355.9101 15.50773661451125 CXO 1 25867U 99040B 24122.90844459 .00000974 00000-0 00000-0 0 9994 2 25867 40.1204 158.4290 8930870 293.0739 0.0973 0.37809658 14390 ...Continue Reading

[TLELIST] Current TLEs

April 30th 2024 PST

HST 1 20580U 90037B 24120.91044929 .00006015 00000-0 28636-3 0 9991 2 20580 28.4688 308.4188 0001987 227.6249 132.4175 15.17039859669958 ISS (ZARYA) 1 25544U 98067A 24121.34418611 .00020521 00000-0 35672-3 0 9994 2 25544 51.6389 192.6226 0003613 123.7838 355.9101 15.50773661451125 CXO 1 25867U 99040B 24122.90844459 .00000974 00000-0 00000-0 0 9994 2 25867 40.1204 158.4290 8930870 293.0739 0.0973 0.37809658 14390 ...Continue Reading

[TLELIST] Current TLEs

April 30th 2024 PST

HST 1 20580U 90037B 24120.91044929 .00006015 00000-0 28636-3 0 9991 2 20580 28.4688 308.4188 0001987 227.6249 132.4175 15.17039859669958 ISS (ZARYA) 1 25544U 98067A 24121.34418611 .00020521 00000-0 35672-3 0 9994 2 25544 51.6389 192.6226 0003613 123.7838 355.9101 15.50773661451125 CXO 1 25867U 99040B 24122.90844459 .00000974 00000-0 00000-0 0 9994 2 25867 40.1204 158.4290 8930870 293.0739 0.0973 0.37809658 14390 ...Continue Reading

[TLELIST] Current TLEs

April 29th 2024 PST

HST 1 20580U 90037B 24119.85786097 .00007717 00000-0 37014-3 0 9991 2 20580 28.4691 315.4633 0002026 214.1569 145.8893 15.17027156669532 ISS (ZARYA) 1 25544U 98067A 24120.22726588 .00019100 00000-0 33314-3 0 9997 2 25544 51.6367 198.1689 0003612 120.7165 239.4180 15.50729139450958 CXO 1 25867U 99040B 24120.27235969 .00001005 00000-0 00000+0 0 9997 2 25867 40.0637 158.6729 8932772 292.9099 1.1410 0.37811371 25539 ...Continue Reading

[TLELIST] Current TLEs

April 28th 2024 PST

HST 1 20580U 90037B 24118.93683811 .00010641 00000-0 51402-3 0 9996 2 20580 28.4692 321.6271 0002066 202.9554 157.0946 15.17013852669399 ISS (ZARYA) 1 25544U 98067A 24119.46939495 .00095887 00000-0 16259-2 0 9998 2 25544 51.6380 201.9259 0004617 126.3534 320.1249 15.50709927450831 CXO 1 25867U 99040B 24120.27235969 .00001005 00000-0 00000+0 0 9997 2 25867 40.0637 158.6729 8932772 292.9099 1.1410 0.37811371 25539 ...Continue Reading

[TLELIST] Current TLEs

April 28th 2024 PST

HST 1 20580U 90037B 24118.93683811 .00010641 00000-0 51402-3 0 9996 2 20580 28.4692 321.6271 0002066 202.9554 157.0946 15.17013852669399 ISS (ZARYA) 1 25544U 98067A 24119.46939495 .00095887 00000-0 16259-2 0 9998 2 25544 51.6380 201.9259 0004617 126.3534 320.1249 15.50709927450831 CXO 1 25867U 99040B 24120.27235969 .00001005 00000-0 00000+0 0 9997 2 25867 40.0637 158.6729 8932772 292.9099 1.1410 0.37811371 25539 ...Continue Reading

[TLELIST] Current TLEs

April 28th 2024 PST

HST 1 20580U 90037B 24118.93683811 .00010641 00000-0 51402-3 0 9996 2 20580 28.4692 321.6271 0002066 202.9554 157.0946 15.17013852669399 ISS (ZARYA) 1 25544U 98067A 24119.46939495 .00095887 00000-0 16259-2 0 9998 2 25544 51.6380 201.9259 0004617 126.3534 320.1249 15.50709927450831 CXO 1 25867U 99040B 24120.27235969 .00001005 00000-0 00000+0 0 9997 2 25867 40.0637 158.6729 8932772 292.9099 1.1410 0.37811371 25539 ...Continue Reading

[TLELIST] Current TLEs

April 27th 2024 PST

HST 1 20580U 90037B 24117.68686161 .00011350 00000-0 54929-3 0 9993 2 20580 28.4693 329.9910 0002239 191.2696 168.7846 15.16986266669205 ISS (ZARYA) 1 25544U 98067A 24118.50350111 .00030700 00000-0 53140-3 0 9998 2 25544 51.6394 206.7140 0003646 114.1545 336.7203 15.50650339450684 CXO 1 25867U 99040B 24120.27235969 .00001005 00000-0 00000+0 0 9997 2 25867 40.0637 158.6729 8932772 292.9099 1.1410 0.37811371 25539 ...Continue Reading

[TLELIST] Current TLEs

April 27th 2024 PST

HST 1 20580U 90037B 24117.68686161 .00011350 00000-0 54929-3 0 9993 2 20580 28.4693 329.9910 0002239 191.2696 168.7846 15.16986266669205 ISS (ZARYA) 1 25544U 98067A 24118.50350111 .00030700 00000-0 53140-3 0 9998 2 25544 51.6394 206.7140 0003646 114.1545 336.7203 15.50650339450684 CXO 1 25867U 99040B 24120.27235969 .00001005 00000-0 00000+0 0 9997 2 25867 40.0637 158.6729 8932772 292.9099 1.1410 0.37811371 25539 ...Continue Reading
  • This mailing list is a public mailing list - anyone may join or leave, at any time.
  • This mailing list is announce-only.

International Space Station (ISS) / Hubble Space Telescope (HST) / Chandra X-Ray Observatory Orbital Data via EMAIL

Privacy Policy:

Private list